Location: Sungai Liu
(2.3667°N, 113.8667°E)
Time: 12:09:01
(UTC+00:00)

Cosmos 1607 - Pass Details

Date: 20 May 2022
Orbit: 931 x 971 km, 65.0° (Epoch: 04 July)

Event Time Altitude Azimuth Distance (km) Brightness Sun altitude
Exits shadow 21:42:23 - 210° (SSW) 3,581 6.5 -8.3°
Reaches altitude 10° 21:44:47 10° 213° (SSW) 2,705 5.8 -7.7°
Maximum altitude 21:51:00 58° 291° (WNW) 1,105 4.1 -6.2°
Drops below altitude 10° 21:57:09 10° 10° (N) 2,674 6.8 -4.8°
Sets 21:59:43 0° 14° (NNE) 3,611 7.5 -4.2°
